| time (UTC) | temp F | wind direction | speed MPH | gust MPH | rain 1hr in | rain 24hr in | rain mn in | humidity % | barometer mb |
| 20260505010109 | 77 | 0 | 0.0 | 1.0 | 0.00 | 0.00 | 0.00 | 47 | 1000.9 |
| 20260505004602 | 78 | 0 | 0.0 | 0.0 | 0.00 | 0.00 | 0.00 | 39 | 1000.7 |
| 20260505003052 | 80 | 0 | 0.0 | 2.0 | 0.00 | 0.00 | 0.00 | 39 | 1000.8 |
| 20260505001548 | 81 | 0 | 0.0 | 0.0 | 0.00 | 0.00 | 0.00 | 39 | 1000.7 |
| 20260505000104 | 81 | 146 | 0.0 | 1.0 | 0.00 | 0.00 | 0.00 | 36 | 1000.9 |
| 20260504234548 | 82 | 215 | 0.0 | 2.0 | 0.00 | 0.00 | 0.00 | 36 | 1000.9 |
| 20260504233055 | 83 | 227 | 0.0 | 2.0 | 0.00 | 0.00 | 0.00 | 36 | 1000.9 |
| 20260504231619 | 85 | 136 | 2.0 | 3.0 | 0.00 | 0.00 | 0.00 | 30 | 1000.8 |
| 20260504230056 | 85 | 196 | 2.0 | 2.0 | 0.00 | 0.00 | 0.00 | 30 | 1000.7 |
| 20260504224552 | 87 | 252 | 1.0 | 2.0 | 0.00 | 0.00 | 0.00 | 25 | 1000.6 |
| 20260504223051 | 85 | 232 | 0.0 | 0.0 | 0.00 | 0.00 | 0.00 | 25 | 1000.5 |
| 20260504221631 | 85 | 0 | 0.0 | 1.0 | 0.00 | 0.00 | 0.00 | 25 | 1000.4 |
| 20260504220058 | 85 | 87 | 0.0 | 2.0 | 0.00 | 0.00 | 0.00 | 27 | 1000.6 |
| 20260504214551 | 86 | 15 | 1.0 | 2.0 | 0.00 | 0.00 | 0.00 | 27 | 1000.7 |
| 20260504213054 | 86 | 22 | 0.0 | 2.0 | 0.00 | 0.00 | 0.00 | 27 | 1000.9 |
| 20260504211553 | 86 | 308 | 1.0 | 1.0 | 0.00 | 0.00 | 0.00 | 29 | 1000.8 |
| 20260504210052 | 86 | 286 | 3.0 | 4.0 | 0.00 | 0.00 | 0.00 | 29 | 1001.1 |
| 20260504204555 | 85 | 225 | 2.0 | 3.0 | 0.00 | 0.00 | 0.00 | 29 | 1001.3 |
| 20260504203050 | 85 | 267 | 2.0 | 3.0 | 0.00 | 0.00 | 0.00 | 25 | 1001.5 |
| 20260504201556 | 85 | 238 | 1.0 | 2.0 | 0.00 | 0.00 | 0.00 | 25 | 1001.6 |
| 20260504200053 | 85 | 127 | 1.0 | 2.0 | 0.00 | 0.00 | 0.00 | 25 | 1001.6 |
| 20260504194601 | 86 | 288 | 3.0 | 7.0 | 0.00 | 0.00 | 0.00 | 25 | 1001.8 |
| 20260504193050 | 86 | 244 | 3.0 | 3.0 | 0.00 | 0.00 | 0.00 | 25 | 1001.9 |
| 20260504191610 | 85 | 227 | 1.0 | 4.0 | 0.00 | 0.00 | 0.00 | 25 | 1001.8 |
| 20260504190048 | 85 | 223 | 4.0 | 4.0 | 0.00 | 0.00 | 0.00 | 29 | 1001.9 |
| 20260504184556 | 84 | 296 | 1.0 | 2.0 | 0.00 | 0.00 | 0.00 | 29 | 1001.9 |
| 20260504183049 | 84 | 293 | 2.0 | 3.0 | 0.00 | 0.00 | 0.00 | 29 | 1002.0 |
| 20260504181552 | 82 | 279 | 3.0 | 3.0 | 0.00 | 0.00 | 0.00 | 32 | 1001.9 |
| 20260504180049 | 82 | 207 | 2.0 | 4.0 | 0.00 | 0.00 | 0.00 | 32 | 1001.9 |
| 20260504174551 | 82 | 269 | 2.0 | 3.0 | 0.00 | 0.00 | 0.00 | 32 | 1002.1 |
| 20260504173055 | 81 | 238 | 1.0 | 4.0 | 0.00 | 0.00 | 0.00 | 42 | 1002.1 |
| 20260504171548 | 79 | 244 | 0.0 | 4.0 | 0.00 | 0.00 | 0.00 | 42 | 1002.2 |
| 20260504140104 | 67 | 267 | 8.0 | 9.0 | 0.00 | 0.00 | 0.00 | 60 | 1002.9 |
| 20260504081545 | 55 | 0 | 0.0 | 0.0 | 0.00 | 0.00 | 0.00 | 69 | 1003.9 |
| 20260504044548 | 63 | 0 | 0.0 | 1.0 | 0.00 | 0.00 | 0.00 | 63 | 1006.0 |
| 20260504043105 | 63 | 74 | 0.0 | 1.0 | 0.00 | 0.00 | 0.00 | 60 | 1006.0 |
| 20260504041553 | 63 | 82 | 1.0 | 2.0 | 0.00 | 0.00 | 0.00 | 60 | 1006.0 |
| 20260504040055 | 64 | 0 | 0.0 | 0.0 | 0.00 | 0.00 | 0.00 | 60 | 1006.5 |
| 20260504034608 | 65 | 0 | 0.0 | 0.0 | 0.00 | 0.00 | 0.00 | 55 | 1006.9 |
| 20260504033057 | 67 | 80 | 1.0 | 2.0 | 0.00 | 0.00 | 0.00 | 55 | 1007.0 |
| 20260504031601 | 67 | 128 | 0.0 | 0.0 | 0.00 | 0.00 | 0.00 | 55 | 1007.0 |
| 20260504030113 | 69 | 75 | 0.0 | 0.0 | 0.00 | 0.00 | 0.00 | 48 | 1007.0 |
| 20260504024554 | 70 | 0 | 0.0 | 0.0 | 0.00 | 0.00 | 0.00 | 48 | 1007.0 |
| 20260504023051 | 70 | 84 | 0.0 | 0.0 | 0.00 | 0.00 | 0.00 | 48 | 1006.6 |
| 20260504021600 | 71 | 119 | 1.0 | 2.0 | 0.00 | 0.00 | 0.00 | 47 | 1006.2 |
| 20260504020051 | 70 | 0 | 0.0 | 0.0 | 0.00 | 0.00 | 0.00 | 47 | 1006.3 |
| 20260504014552 | 72 | 0 | 0.0 | 2.0 | 0.00 | 0.00 | 0.00 | 47 | 1006.1 |
| 20260504013115 | 72 | 78 | 0.0 | 1.0 | 0.00 | 0.00 | 0.00 | 42 | 1006.2 |
| 20260504011549 | 73 | 84 | 1.0 | 1.0 | 0.00 | 0.00 | 0.00 | 42 | 1006.2 |